Time,TemperatureF,DewpointF,PressureIn,WindDirection,WindDirectionDegrees,WindSpeedMPH,WindSpeedGustMPH,Humidity,HourlyPrecipIn,Conditions,Clouds,dailyrainin,SoftwareType,DateUTC
2013-02-22 00:26:00,20.4,18.0,29.71,NNE,32,0.0,0.0,91,0.00,,,0.00,weatherlink.com 1.10,2013-02-22 06:26:00,
2013-02-22 00:33:00,20.3,18.0,29.71,NNE,32,0.0,1.0,91,0.00,,,0.00,weatherlink.com 1.10,2013-02-22 06:33:00,
2013-02-22 00:48:00,20.1,18.0,29.71,NNE,33,0.0,2.0,91,0.00,,,0.00,weatherlink.com 1.10,2013-02-22 06:48:00,
2013-02-22 01:02:00,20.0,18.0,29.71,NE,36,0.0,2.0,91,0.00,,,0.00,weatherlink.com 1.10,2013-02-22 07:02:00,
2013-02-22 01:17:00,19.9,18.0,29.71,North,349,0.0,0.0,91,0.00,,,0.00,weatherlink.com 1.10,2013-02-22 07:17:00,
2013-02-22 01:33:00,19.7,18.0,29.71,NNE,32,0.0,2.0,91,0.00,,,0.00,weatherlink.com 1.10,2013-02-22 07:33:00,
2013-02-22 01:48:00,19.7,18.0,29.71,NNE,17,0.0,1.0,91,0.00,,,0.00,weatherlink.com 1.10,2013-02-22 07:48:00,
2013-02-22 02:02:00,19.6,17.0,29.71,NE,38,0.0,3.0,91,0.00,,,0.00,weatherlink.com 1.10,2013-02-22 08:02:00,
2013-02-22 02:17:00,19.6,17.0,29.71,NNE,23,0.0,3.0,91,0.00,,,0.00,weatherlink.com 1.10,2013-02-22 08:17:00,
2013-02-22 02:32:00,19.7,18.0,29.71,NNE,17,0.0,2.0,91,0.00,,,0.00,weatherlink.com 1.10,2013-02-22 08:32:00,
2013-02-22 02:47:00,19.6,17.0,29.71,NNE,26,0.0,2.0,91,0.00,,,0.00,weatherlink.com 1.10,2013-02-22 08:47:00,
2013-02-22 03:02:00,19.5,17.0,29.71,NW,304,0.0,1.0,91,0.00,,,0.00,weatherlink.com 1.10,2013-02-22 09:02:00,
2013-02-22 03:17:00,19.3,17.0,29.71,NW,317,0.0,3.0,91,0.00,,,0.00,weatherlink.com 1.10,2013-02-22 09:17:00,
2013-02-22 03:32:00,18.9,17.0,29.71,NW,321,0.0,2.0,91,0.00,,,0.00,weatherlink.com 1.10,2013-02-22 09:32:00,
2013-02-22 03:47:00,18.6,16.0,29.71,NW,319,0.0,3.0,91,0.00,,,0.00,weatherlink.com 1.10,2013-02-22 09:47:00,
2013-02-22 04:03:00,18.4,16.0,29.71,NNW,338,0.0,3.0,91,0.00,,,0.00,weatherlink.com 1.10,2013-02-22 10:03:00,
2013-02-22 04:17:00,18.4,16.0,29.72,NNW,327,0.0,4.0,91,0.00,,,0.00,weatherlink.com 1.10,2013-02-22 10:17:00,
2013-02-22 04:33:00,18.6,16.0,29.72,NNW,329,0.0,3.0,91,0.00,,,0.00,weatherlink.com 1.10,2013-02-22 10:33:00,
2013-02-22 04:47:00,18.6,16.0,29.72,NW,325,0.0,4.0,91,0.00,,,0.00,weatherlink.com 1.10,2013-02-22 10:47:00,
2013-02-22 05:03:00,18.5,16.0,29.72,NW,318,0.0,7.0,91,0.00,,,0.00,weatherlink.com 1.10,2013-02-22 11:03:00,
2013-02-22 05:18:00,18.5,16.0,29.73,North,355,1.0,5.0,91,0.00,,,0.00,weatherlink.com 1.10,2013-02-22 11:18:00,
2013-02-22 05:33:00,18.4,16.0,29.73,NNW,338,0.0,3.0,90,0.00,,,0.00,weatherlink.com 1.10,2013-02-22 11:33:00,
2013-02-22 05:48:00,18.1,16.0,29.73,NW,321,0.0,9.0,90,0.00,,,0.00,weatherlink.com 1.10,2013-02-22 11:48:00,
2013-02-22 06:03:00,17.9,15.0,29.74,NW,325,2.0,3.0,89,0.00,,,0.00,weatherlink.com 1.10,2013-02-22 12:03:00,
2013-02-22 06:18:00,17.6,15.0,29.74,North,350,3.0,6.0,89,0.00,,,0.00,weatherlink.com 1.10,2013-02-22 12:18:00,
2013-02-22 06:33:00,17.2,15.0,29.74,NNW,342,3.0,6.0,89,0.00,,,0.00,weatherlink.com 1.10,2013-02-22 12:33:00,
2013-02-22 06:48:00,16.8,14.0,29.75,NNW,330,0.0,5.0,89,0.00,,,0.00,weatherlink.com 1.10,2013-02-22 12:48:00,
2013-02-22 07:03:00,16.4,14.0,29.75,NNW,338,1.0,5.0,88,0.00,,,0.00,weatherlink.com 1.10,2013-02-22 13:03:00,
2013-02-22 07:18:00,16.1,13.0,29.76,NNW,327,0.0,4.0,88,0.00,,,0.00,weatherlink.com 1.10,2013-02-22 13:18:00,
2013-02-22 07:33:00,15.7,13.0,29.77,NNW,343,2.0,4.0,88,0.00,,,0.00,weatherlink.com 1.10,2013-02-22 13:33:00,
2013-02-22 07:48:00,15.6,13.0,29.77,NW,318,0.0,5.0,88,0.00,,,0.00,weatherlink.com 1.10,2013-02-22 13:48:00,
2013-02-22 08:03:00,15.6,13.0,29.78,NW,323,0.0,6.0,88,0.00,,,0.00,weatherlink.com 1.10,2013-02-22 14:03:00,
2013-02-22 08:18:00,15.9,13.0,29.79,NNW,328,0.0,6.0,88,0.00,,,0.00,weatherlink.com 1.10,2013-02-22 14:18:00,
2013-02-22 08:33:00,16.4,14.0,29.79,NNW,337,0.0,5.0,88,0.00,,,0.00,weatherlink.com 1.10,2013-02-22 14:33:00,
2013-02-22 08:48:00,17.0,14.0,29.80,NNE,19,0.0,4.0,87,0.00,,,0.00,weatherlink.com 1.10,2013-02-22 14:48:00,
2013-02-22 09:03:00,17.5,14.0,29.80,North,5,3.0,6.0,86,0.00,,,0.00,weatherlink.com 1.10,2013-02-22 15:03:00,
2013-02-22 09:18:00,17.9,14.0,29.80,North,355,0.0,4.0,86,0.00,,,0.00,weatherlink.com 1.10,2013-02-22 15:18:00,
2013-02-22 09:33:00,18.6,15.0,29.82,West,274,0.0,4.0,85,0.00,,,0.00,weatherlink.com 1.10,2013-02-22 15:33:00,
2013-02-22 09:48:00,19.1,15.0,29.83,West,270,4.0,6.0,84,0.00,,,0.00,weatherlink.com 1.10,2013-02-22 15:48:00,
2013-02-22 10:03:00,19.7,16.0,29.83,NNW,327,2.0,6.0,84,0.00,,,0.00,weatherlink.com 1.10,2013-02-22 16:03:00,
2013-02-22 10:18:00,19.7,15.0,29.83,NNW,329,3.0,10.0,82,0.00,,,0.00,weatherlink.com 1.10,2013-02-22 16:18:00,
2013-02-22 10:33:00,20.0,16.0,29.83,NNW,342,3.0,7.0,83,0.00,,,0.00,weatherlink.com 1.10,2013-02-22 16:33:00,
2013-02-22 10:48:00,20.4,16.0,29.83,NW,309,2.0,7.0,83,0.00,,,0.00,weatherlink.com 1.10,2013-02-22 16:48:00,
2013-02-22 11:03:00,21.0,16.0,29.84,NNW,331,5.0,8.0,82,0.00,,,0.00,weatherlink.com 1.10,2013-02-22 17:03:00,
2013-02-22 11:19:00,21.1,16.0,29.84,NNW,332,0.0,6.0,81,0.00,,,0.00,weatherlink.com 1.10,2013-02-22 17:19:00,
2013-02-22 11:33:00,22.0,17.0,29.86,NNW,327,4.0,7.0,81,0.00,,,0.00,weatherlink.com 1.10,2013-02-22 17:33:00,
2013-02-22 11:48:00,21.8,17.0,29.87,WNW,297,3.0,9.0,80,0.00,,,0.00,weatherlink.com 1.10,2013-02-22 17:48:00,
2013-02-22 12:04:00,21.8,17.0,29.87,WNW,299,1.0,9.0,80,0.00,,,0.00,weatherlink.com 1.10,2013-02-22 18:04:00,
2013-02-22 12:18:00,22.2,17.0,29.87,NNW,342,3.0,10.0,80,0.00,,,0.00,weatherlink.com 1.10,2013-02-22 18:18:00,
2013-02-22 12:33:00,23.1,17.0,29.87,NW,323,7.0,9.0,78,0.00,,,0.00,weatherlink.com 1.10,2013-02-22 18:33:00,
2013-02-22 12:49:00,23.1,17.0,29.87,WNW,285,2.0,8.0,78,0.00,,,0.00,weatherlink.com 1.10,2013-02-22 18:49:00,
2013-02-22 13:04:00,23.7,18.0,29.87,WNW,295,5.0,8.0,77,0.02,,,0.02,weatherlink.com 1.10,2013-02-22 19:04:00,
2013-02-22 13:19:00,24.2,18.0,29.87,NW,323,5.0,10.0,77,0.03,,,0.03,weatherlink.com 1.10,2013-02-22 19:19:00,
2013-02-22 13:34:00,23.2,17.0,29.87,NNW,339,2.0,10.0,78,0.04,,,0.04,weatherlink.com 1.10,2013-02-22 19:34:00,
2013-02-22 13:49:00,23.4,17.0,29.86,NE,46,3.0,10.0,76,0.04,,,0.05,weatherlink.com 1.10,2013-02-22 19:49:00,
2013-02-22 14:04:00,23.8,17.0,29.86,NNW,327,7.0,8.0,76,0.04,,,0.06,weatherlink.com 1.10,2013-02-22 20:04:00,
2013-02-22 14:34:00,22.8,16.0,29.86,NW,319,0.0,11.0,74,0.03,,,0.07,weatherlink.com 1.10,2013-02-22 20:34:00,
2013-02-22 14:49:00,23.4,17.0,29.86,NW,311,2.0,10.0,75,0.03,,,0.08,weatherlink.com 1.10,2013-02-22 20:49:00,
2013-02-22 15:04:00,24.4,18.0,29.86,WSW,257,0.0,8.0,75,0.02,,,0.08,weatherlink.com 1.10,2013-02-22 21:04:00,
2013-02-22 15:19:00,24.3,16.0,29.86,NNW,333,0.0,13.0,72,0.03,,,0.10,weatherlink.com 1.10,2013-02-22 21:19:00,
2013-02-22 15:34:00,24.2,17.0,29.86,WNW,290,4.0,9.0,74,0.03,,,0.10,weatherlink.com 1.10,2013-02-22 21:34:00,
2013-02-22 15:50:00,24.3,17.0,29.86,NW,324,1.0,13.0,73,0.03,,,0.11,weatherlink.com 1.10,2013-02-22 21:50:00,
2013-02-22 16:04:00,23.9,16.0,29.86,WNW,288,0.0,10.0,73,0.04,,,0.12,weatherlink.com 1.10,2013-02-22 22:04:00,
2013-02-22 16:19:00,23.8,16.0,29.87,NNW,340,0.0,6.0,73,0.02,,,0.12,weatherlink.com 1.10,2013-02-22 22:19:00,
2013-02-22 16:34:00,22.8,16.0,29.87,North,9,0.0,7.0,74,0.03,,,0.13,weatherlink.com 1.10,2013-02-22 22:34:00,
2013-02-22 16:49:00,22.3,16.0,29.87,NW,316,0.0,6.0,77,0.02,,,0.13,weatherlink.com 1.10,2013-02-22 22:49:00,
2013-02-22 17:04:00,22.0,16.0,29.87,NW,324,0.0,6.0,77,0.01,,,0.13,weatherlink.com 1.10,2013-02-22 23:04:00,
2013-02-22 17:19:00,21.9,16.0,29.87,NNW,340,0.0,7.0,78,0.01,,,0.13,weatherlink.com 1.10,2013-02-22 23:19:00,
2013-02-22 17:34:00,21.7,16.0,29.88,WNW,298,4.0,5.0,78,0.00,,,0.13,weatherlink.com 1.10,2013-02-22 23:34:00,
2013-02-22 17:49:00,21.5,16.0,29.88,NW,310,0.0,5.0,78,0.00,,,0.13,weatherlink.com 1.10,2013-02-22 23:49:00,
2013-02-22 18:04:00,21.2,16.0,29.88,West,277,0.0,8.0,79,0.00,,,0.13,weatherlink.com 1.10,2013-02-23 00:04:00,
2013-02-22 18:19:00,21.0,15.0,29.89,NNW,331,1.0,6.0,79,0.00,,,0.13,weatherlink.com 1.10,2013-02-23 00:19:00,
2013-02-22 18:34:00,20.4,15.0,29.89,WNW,288,0.0,4.0,79,0.00,,,0.13,weatherlink.com 1.10,2013-02-23 00:34:00,
2013-02-22 18:49:00,19.7,14.0,29.89,WNW,288,0.0,4.0,79,0.00,,,0.13,weatherlink.com 1.10,2013-02-23 00:49:00,
2013-02-22 19:04:00,19.0,14.0,29.89,WNW,288,0.0,0.0,80,0.00,,,0.13,weatherlink.com 1.10,2013-02-23 01:04:00,
2013-02-22 19:19:00,18.3,13.0,29.89,WNW,288,0.0,0.0,81,0.00,,,0.13,weatherlink.com 1.10,2013-02-23 01:19:00,
2013-02-22 19:34:00,17.8,13.0,29.90,WNW,289,1.0,4.0,82,0.00,,,0.13,weatherlink.com 1.10,2013-02-23 01:34:00,
2013-02-22 19:49:00,17.5,13.0,29.89,WNW,302,0.0,0.0,83,0.00,,,0.13,weatherlink.com 1.10,2013-02-23 01:49:00,
2013-02-22 20:04:00,17.2,13.0,29.89,WNW,302,0.0,0.0,83,0.00,,,0.13,weatherlink.com 1.10,2013-02-23 02:04:00,
2013-02-22 20:19:00,16.6,13.0,29.89,WNW,302,0.0,0.0,84,0.00,,,0.13,weatherlink.com 1.10,2013-02-23 02:19:00,
2013-02-22 20:34:00,16.4,13.0,29.89,WNW,302,0.0,0.0,85,0.00,,,0.13,weatherlink.com 1.10,2013-02-23 02:34:00,
2013-02-22 20:50:00,16.2,12.0,29.89,WNW,302,0.0,2.0,84,0.00,,,0.13,weatherlink.com 1.10,2013-02-23 02:50:00,
2013-02-22 21:04:00,15.8,12.0,29.89,WNW,302,0.0,1.0,85,0.00,,,0.13,weatherlink.com 1.10,2013-02-23 03:04:00,
2013-02-22 21:19:00,15.3,12.0,29.89,WNW,302,0.0,0.0,85,0.00,,,0.13,weatherlink.com 1.10,2013-02-23 03:19:00,
2013-02-22 21:35:00,15.0,11.0,29.89,WNW,302,0.0,0.0,85,0.00,,,0.13,weatherlink.com 1.10,2013-02-23 03:35:00,
2013-02-22 21:50:00,14.4,11.0,29.89,WNW,302,0.0,2.0,86,0.00,,,0.13,weatherlink.com 1.10,2013-02-23 03:50:00,
2013-02-22 22:05:00,14.1,11.0,29.89,WNW,302,0.0,0.0,86,0.00,,,0.13,weatherlink.com 1.10,2013-02-23 04:05:00,
2013-02-22 22:20:00,13.6,10.0,29.89,WNW,302,0.0,0.0,86,0.00,,,0.13,weatherlink.com 1.10,2013-02-23 04:20:00,
2013-02-22 22:35:00,13.2,10.0,29.89,WNW,302,0.0,0.0,87,0.00,,,0.13,weatherlink.com 1.10,2013-02-23 04:35:00,
2013-02-22 22:50:00,12.4,9.0,29.89,WNW,302,0.0,0.0,87,0.00,,,0.13,weatherlink.com 1.10,2013-02-23 04:50:00,
2013-02-22 23:05:00,11.9,9.0,29.89,WNW,302,0.0,0.0,87,0.00,,,0.13,weatherlink.com 1.10,2013-02-23 05:05:00,
2013-02-22 23:20:00,11.7,9.0,29.89,WNW,302,0.0,0.0,88,0.00,,,0.13,weatherlink.com 1.10,2013-02-23 05:20:00,
2013-02-22 23:35:00,11.4,9.0,29.88,WNW,302,0.0,0.0,89,0.00,,,0.13,weatherlink.com 1.10,2013-02-23 05:35:00,
2013-02-22 23:50:00,10.9,8.0,29.88,WNW,302,0.0,0.0,89,0.00,,,0.13,weatherlink.com 1.10,2013-02-23 05:50:00,